Weather in Bikkulovo

Russia / Republic of Bashkortostan     53°44′25″N   54°53′18″E
temp.,
°C
wind,
m/s
gust,
m/s
humid.,
%
clouds,
%
prec.,
mm/h
press.,
hPa
HPBL,
m
1 march, mon
mon123:00−17wnw239677 0.0 100827
02:00−18nw229896 0.0 101121
05:00−18w129798 0.1 101320
08:00−17wnw229799 0.1 101531
11:00−15wnw229393 0.2 1016213
14:00−13nnw128899 0.1 1017367
17:00−12nnw1293100 0.2 1018200
20:00−18nne1198100 0.1 101920
2 march, tue
tue223:00−19sw1210099 0.1 102020
02:00−21sw339969 0.0 102034
05:00−22sw479848 0.0 1019109
08:00−21ssw5119527 0.0 1016209
11:00−16ssw7129363 0.0 1014344
14:00−13ssw81493100 0.4 1011491
17:00−11ssw91592100 0.9 1008599
20:00−8ssw91690100 0.6 1006607
3 march, wed
wed323:00−5sw81691100 0.8 1003585
02:00−4sw81494100 0.5 1001590
05:00−3sw61194100 0.9 1001379
08:00−4wsw499697 0.3 1001275
11:00−3w588999 0.4 1002772
14:00−3w578899 0.1 1002759
17:00−4wsw479195 0.1 1002357
20:00−7wsw369677 0.1 1003187
4 march, thu
thu423:00−7w359688 0.3 1004112
02:00−10w489494 0.0 1004159
05:00−13w349580 0.0 100554
08:00−15wsw359772 0.0 100764
11:00−12wsw599464 0.0 1008297
14:00−8sw7119199 0.0 1008490
17:00−8sw7129199 0.1 1007515
20:00−7sw81591100 0.1 1006655
5 march, fri
fri523:00−6sw101890100 0.2 1005757
02:00−3sw101893100 0.8 1001935
05:00−2sw121991100 1.4 9991092
08:00−2sw132091100 0.6 9991129
11:00−2wsw12189499 1.3 10011153
14:00−1w91573100 0.5 10041269
17:00−5w6118268 0.5 1008627
20:00−11wsw349132 0.0 101242